WB5OMR-9 Weather Reports


time (UTC)temp
F
wind
direction
speed
knots
gust
knots
rain 1hr
in
rain 24hr
in
rain mn
in
humidity
%
barometer
mb
20260904221832 101 67 0.0 0.0 0.00 0.00 0.00 41 1011.5
20260904220749 103 90 0.0 0.0 0.00 0.00 0.00 40 1011.5
20260904215748 102 90 0.0 0.0 0.00 0.00 0.00 40 1011.5
20260904214747 103 45 0.0 0.0 0.00 0.00 0.00 39 1011.5
20260904213746 103 90 0.0 0.0 0.00 0.00 0.00 38 1011.9
20260904212744 104 90 0.0 0.0 0.00 0.00 0.00 38 1011.9
20260904211743 103 67 0.0 0.0 0.00 0.00 0.00 39 1012.2
20260904210659 104 90 0.0 0.0 0.00 0.00 0.00 38 1012.2
20260904205658 105 67 0.0 0.0 0.00 0.00 0.00 38 1012.2
20260904204657 106 112 0.0 0.0 0.00 0.00 0.00 37 1012.2
20260904203656 105 45 0.0 0.0 0.00 0.00 0.00 39 1012.2
20260904202655 105 157 0.0 0.0 0.00 0.00 0.00 39 1012.5
20260904201655 104 112 0.0 0.0 0.00 0.00 0.00 39 1012.5
20260904200654 104 112 0.0 0.0 0.00 0.00 0.00 39 1012.9
20260904195652 105 157 0.0 0.0 0.00 0.00 0.00 40 1012.9
20260904194651 102 112 0.0 0.0 0.00 0.00 0.00 43 1012.9
20260904193608 101 337 0.0 0.0 0.00 0.00 0.00 44 1013.2
20260904192524 101 112 0.0 0.0 0.00 0.00 0.00 45 1013.2
20260904191441 100 135 0.0 0.0 0.00 0.00 0.00 45 1013.2
20260904190357 100 157 0.0 0.0 0.00 0.00 0.00 45 1013.5
20260904185356 100 135 0.0 0.0 0.00 0.00 0.00 46 1013.5
20260904184355 100 157 0.0 0.0 0.00 0.00 0.00 46 1014.2
20260904183354 100 90 0.0 0.0 0.00 0.00 0.00 46 1013.9
20260904182352 100 180 0.0 0.0 0.00 0.00 0.00 45 1013.2
20260904181351 100 135 0.0 0.0 0.00 0.00 0.00 46 1012.9
20260904180307 98 180 0.0 0.0 0.00 0.00 0.00 48 1013.5
20260904175306 97 135 0.0 0.0 0.00 0.00 0.00 50 1013.5
20260904174305 95 180 0.0 0.0 0.00 0.00 0.00 52 1013.9
20260904173304 95 180 0.0 0.0 0.00 0.00 0.00 53 1014.2
20260904172305 94 180 0.0 0.0 0.00 0.00 0.00 55 1014.2
20260904171302 93 112 0.0 0.0 0.00 0.00 0.00 56 1014.2
20260904170301 92 135 0.0 0.0 0.00 0.00 0.00 58 1014.6
20260904165300 91 157 0.0 0.0 0.00 0.00 0.00 59 1014.6
20260904164259 91 157 0.0 0.0 0.00 0.00 0.00 60 1014.6
20260904163216 91 157 0.0 0.0 0.00 0.00 0.00 60 1014.6
20260904162132 92 135 0.0 0.0 0.00 0.00 0.00 60 1014.6
20260904161132 92 112 0.0 0.0 0.00 0.00 0.00 60 1014.6
20260904160131 91 157 0.0 0.0 0.00 0.00 0.00 62 1014.6
20260904155130 90 157 0.0 0.0 0.00 0.00 0.00 63 1014.6
20260904154128 88 112 0.0 0.0 0.00 0.00 0.00 67 1014.6
20260904153127 88 157 0.0 0.0 0.00 0.00 0.00 66 1014.2
20260904152044 87 180 0.0 0.0 0.00 0.00 0.00 69 1014.2
20260904150959 87 202 0.0 0.0 0.00 0.00 0.00 70 1014.2
20260904145958 87 67 0.0 0.0 0.00 0.00 0.00 70 1014.2
20260904144957 87 67 0.0 0.0 0.00 0.00 0.00 72 1014.2
20260904143956 85 157 0.0 0.0 0.00 0.00 0.00 74 1014.2
20260904142912 85 202 0.0 0.0 0.00 0.00 0.00 77 1014.2
20260904141911 83 135 0.0 0.0 0.00 0.00 0.00 79 1014.2
20260904140910 83 135 0.0 0.0 0.00 0.00 0.00 80 1014.2
20260904135910 82 112 0.0 0.0 0.00 0.00 0.00 81 1014.2
20260904134909 82 112 0.0 0.0 0.00 0.00 0.00 81 1014.2
20260904133908 81 112 0.0 0.0 0.00 0.00 0.00 81 1013.9
20260904132906 81 90 0.0 0.0 0.00 0.00 0.00 82 1013.9
20260904131905 81 67 0.0 0.0 0.00 0.00 0.00 82 1013.9
20260904130904 80 135 0.0 0.0 0.00 0.00 0.00 82 1013.5
20260904125903 80 135 0.0 0.0 0.00 0.00 0.00 82 1013.2
20260904124901 80 112 0.0 0.0 0.00 0.00 0.00 82 1013.2
20260904123900 80 112 0.0 0.0 0.00 0.00 0.00 82 1013.2
20260904122859 80 135 0.0 0.0 0.00 0.00 0.00 82 1013.2
20260904121858 80 112 0.0 0.0 0.00 0.00 0.00 82 1013.2
20260904120815 80 112 0.0 0.0 0.00 0.00 0.00 82 1013.2
20260904115731 80 112 0.0 0.0 0.00 0.00 0.00 82 1012.9
20260904114730 80 112 0.0 0.0 0.00 0.00 0.00 81 1012.9
20260904113729 80 112 0.0 0.0 0.00 0.00 0.00 80 1012.9
20260904112728 80 90 0.0 0.0 0.00 0.00 0.00 80 1012.9
20260904111727 80 112 0.0 0.0 0.00 0.00 0.00 80 1012.5
20260904110726 80 112 0.0 0.0 0.00 0.00 0.00 80 1012.5
20260904105643 80 112 0.0 0.0 0.00 0.00 0.00 80 1012.5
20260904104642 80 135 0.0 0.0 0.00 0.00 0.00 80 1012.2
20260904103558 80 112 0.0 0.0 0.00 0.00 0.00 79 1012.5
20260904102557 80 112 0.0 0.0 0.00 0.00 0.00 79 1012.5
20260904101555 80 112 0.0 0.0 0.00 0.00 0.00 79 1012.5
20260904100554 80 112 0.0 0.0 0.00 0.00 0.00 80 1012.5
20260904095553 80 157 0.0 0.0 0.00 0.00 0.00 80 1012.5
20260904094551 80 135 0.0 0.0 0.00 0.00 0.00 80 1012.5
20260904093550 80 157 0.0 0.0 0.00 0.00 0.00 80 1012.2
20260904092548 80 157 0.0 0.0 0.00 0.00 0.00 79 1012.5
20260904091548 80 135 0.0 0.0 0.00 0.00 0.00 79 1012.5
20260904090547 81 157 0.0 0.0 0.00 0.00 0.00 79 1012.5
20260904085546 81 157 0.0 0.0 0.00 0.00 0.00 79 1012.5
20260904084544 81 157 0.0 0.0 0.00 0.00 0.00 78 1012.5
20260904083543 81 157 0.0 0.0 0.00 0.00 0.00 78 1012.5
20260904082542 81 135 0.0 0.0 0.00 0.00 0.00 78 1012.9
20260904081541 81 112 0.0 0.0 0.00 0.00 0.00 78 1012.9
20260904080540 81 112 0.0 0.0 0.00 0.00 0.00 78 1012.9
20260904075538 81 157 0.0 0.0 0.00 0.00 0.00 78 1012.5
20260904074454 81 157 0.0 0.0 0.00 0.00 0.00 77 1012.9
20260904073411 81 135 0.0 0.0 0.00 0.00 0.00 77 1012.5
20260904072327 81 135 0.0 0.0 0.00 0.00 0.00 77 1012.9
20260904071243 81 157 0.0 0.0 0.00 0.00 0.00 77 1012.9
20260904070242 81 135 0.0 0.0 0.00 0.00 0.00 76 1012.9
20260904065241 82 135 0.0 0.0 0.00 0.00 0.00 75 1013.2
20260904064241 82 112 0.0 0.0 0.00 0.00 0.00 75 1013.2
20260904063240 82 90 0.0 0.0 0.00 0.00 0.00 75 1013.2
20260904062157 82 157 0.0 0.0 0.00 0.00 0.00 74 1013.2
20260904061113 82 157 0.0 0.0 0.00 0.00 0.00 74 1013.2
20260904060112 82 135 0.0 0.0 0.00 0.00 0.00 73 1013.2
20260904055111 82 135 0.0 0.0 0.00 0.00 0.00 73 1013.2
20260904054110 82 135 0.0 0.0 0.00 0.00 0.00 73 1013.2
20260904053109 83 135 0.0 0.0 0.00 0.00 0.00 72 1013.2
20260904052108 83 135 0.0 0.0 0.00 0.00 0.00 71 1012.9
20260904051024 83 157 0.0 0.0 0.00 0.00 0.00 70 1013.2
20260904050023 84 157 0.0 0.0 0.00 0.00 0.00 70 1013.2
20260904045023 84 112 0.0 0.0 0.00 0.00 0.00 68 1013.2
20260904044022 84 135 0.0 0.0 0.00 0.00 0.00 67 1013.2
20260904043021 85 157 0.0 0.0 0.00 0.00 0.00 66 1013.2
20260904042019 85 135 0.0 0.0 0.00 0.00 0.00 64 1013.2
20260904040936 85 135 0.0 0.0 0.00 0.00 0.00 62 1012.9
20260904035853 86 112 0.0 0.0 0.00 0.00 0.00 60 1012.9
20260904034851 86 90 0.0 0.0 0.00 0.00 0.00 56 1012.5
20260904033850 87 135 0.0 0.0 0.00 0.00 0.00 55 1012.5
20260904032848 87 135 0.0 0.0 0.00 0.00 0.00 54 1012.5
20260904031805 88 157 0.0 0.0 0.00 0.00 0.00 51 1012.2
20260904030721 89 135 0.0 0.0 0.00 0.00 0.00 50 1011.5
20260904025721 89 180 0.0 0.0 0.00 0.00 0.00 49 1012.2
20260904024720 90 180 0.0 0.0 0.00 0.00 0.00 48 1012.5
20260904023719 91 112 0.0 0.0 0.00 0.00 0.00 48 1011.9
20260904022718 91 135 0.0 0.0 0.00 0.00 0.00 48 1011.5
20260904021717 92 135 0.0 0.0 0.00 0.00 0.00 46 1011.5
20260904020716 93 180 0.0 0.0 0.00 0.00 0.00 45 1011.2
20260904015715 94 157 0.0 0.0 0.00 0.00 0.00 45 1011.2
20260904014713 95 180 0.0 0.0 0.00 0.00 0.00 45 1010.5
20260904013712 96 157 0.0 0.0 0.00 0.00 0.00 44 1010.5
20260904012711 97 112 0.0 0.0 0.00 0.00 0.00 40 1010.2
20260904011710 97 112 0.0 0.0 0.00 0.00 0.00 37 1009.8
20260904010708 98 67 0.0 0.0 0.00 0.00 0.00 36 1009.8
20260904005707 99 90 0.0 0.0 0.00 0.00 0.00 35 1009.8
20260904004624 99 112 0.0 0.0 0.00 0.00 0.00 35 1009.8
20260904003541 100 112 0.0 0.0 0.00 0.00 0.00 33 1009.8
20260904002540 101 135 0.0 0.0 0.00 0.00 0.00 33 1009.5
20260904001456 101 157 0.0 0.0 0.00 0.00 0.00 32 1009.5
20260904000455 102 112 0.0 0.0 0.00 0.00 0.00 32 1009.5
20260903235454 103 135 0.0 0.0 0.00 0.00 0.00 31 1009.5
20260903234454 104 112 0.0 0.0 0.00 0.00 0.00 30 1009.5
20260903233452 105 247 0.0 0.0 0.00 0.00 0.00 31 1009.5
20260903232408 106 247 0.0 0.0 0.00 0.00 0.00 30 1009.5
20260903231325 106 247 0.0 0.0 0.00 0.00 0.00 30 1009.5
20260903230324 107 247 0.0 0.0 0.00 0.00 0.00 30 1009.5
20260903225323 107 112 0.0 0.0 0.00 0.00 0.00 29 1009.5
20260903224322 108 90 0.0 0.0 0.00 0.00 0.00 28 1009.5
20260903223322 108 157 0.0 0.0 0.00 0.00 0.00 28 1009.5
20260903222320 108 45 0.0 0.0 0.00 0.00 0.00 28 1009.5